| time (UTC) | temp F | wind direction | speed MPH | gust MPH | rain 1hr in | rain 24hr in | rain mn in | humidity % | barometer mb |
| 20260504050421 | 45 | 253 | 0.0 | 0.0 | 0.00 | 0.00 | 0.00 | 73 | 1010.2 |
| 20260504045918 | 45 | 253 | 0.0 | 0.0 | 0.00 | 0.00 | 0.00 | 73 | 1010.2 |
| 20260504045414 | 45 | 253 | 1.0 | 1.0 | 0.00 | 0.00 | 0.00 | 73 | 1010.1 |
| 20260504044910 | 45 | 262 | 0.0 | 2.0 | 0.00 | 0.00 | 0.00 | 73 | 1010.3 |
| 20260504044408 | 45 | 293 | 0.0 | 0.0 | 0.00 | 0.00 | 0.00 | 73 | 1010.3 |
| 20260504043905 | 45 | 232 | 0.0 | 1.0 | 0.00 | 0.00 | 0.00 | 72 | 1010.3 |
| 20260504043401 | 45 | 278 | 0.0 | 1.0 | 0.00 | 0.00 | 0.00 | 72 | 1010.2 |
| 20260504042859 | 46 | 285 | 0.0 | 0.0 | 0.00 | 0.00 | 0.00 | 72 | 1010.1 |
| 20260504042355 | 46 | 285 | 0.0 | 1.0 | 0.00 | 0.00 | 0.00 | 71 | 1010.2 |
| 20260504041852 | 46 | 233 | 0.0 | 0.0 | 0.00 | 0.00 | 0.00 | 70 | 1010.2 |
| 20260504041348 | 46 | 233 | 0.0 | 1.0 | 0.00 | 0.00 | 0.00 | 70 | 1010.4 |
| 20260504040844 | 46 | 234 | 0.0 | 1.0 | 0.00 | 0.00 | 0.00 | 69 | 1010.4 |
| 20260504040342 | 46 | 250 | 0.0 | 2.0 | 0.00 | 0.00 | 0.00 | 70 | 1010.5 |
| 20260504035837 | 45 | 223 | 3.0 | 3.0 | 0.00 | 0.00 | 0.00 | 70 | 1010.7 |
| 20260504035336 | 45 | 217 | 1.0 | 3.0 | 0.00 | 0.00 | 0.00 | 70 | 1010.8 |
| 20260504034832 | 44 | 280 | 1.0 | 2.0 | 0.00 | 0.00 | 0.00 | 68 | 1010.6 |
| 20260504034330 | 43 | 250 | 2.0 | 9.0 | 0.00 | 0.00 | 0.00 | 68 | 1010.5 |
| 20260504033826 | 43 | 319 | 0.0 | 0.0 | 0.00 | 0.00 | 0.00 | 70 | 1010.6 |
| 20260504033325 | 42 | 319 | 0.0 | 0.0 | 0.00 | 0.00 | 0.00 | 70 | 1010.6 |
| 20260504032821 | 42 | 319 | 0.0 | 0.0 | 0.00 | 0.00 | 0.00 | 70 | 1010.7 |
| 20260504032318 | 42 | 319 | 0.0 | 0.0 | 0.00 | 0.00 | 0.00 | 70 | 1010.6 |
| 20260504031815 | 41 | 319 | 0.0 | 0.0 | 0.00 | 0.00 | 0.00 | 70 | 1010.6 |
| 20260504031312 | 41 | 319 | 0.0 | 0.0 | 0.00 | 0.00 | 0.00 | 69 | 1010.5 |
| 20260504030808 | 41 | 319 | 0.0 | 0.0 | 0.00 | 0.00 | 0.00 | 69 | 1010.3 |
| 20260504030306 | 41 | 319 | 0.0 | 0.0 | 0.00 | 0.00 | 0.00 | 69 | 1010.3 |
| 20260504025802 | 41 | 320 | 0.0 | 0.0 | 0.00 | 0.00 | 0.00 | 69 | 1010.0 |
| 20260504025259 | 41 | 320 | 0.0 | 0.0 | 0.00 | 0.00 | 0.00 | 68 | 1010.2 |
| 20260504024755 | 41 | 320 | 0.0 | 0.0 | 0.00 | 0.00 | 0.00 | 68 | 1010.2 |
| 20260504024252 | 42 | 320 | 0.0 | 0.0 | 0.00 | 0.00 | 0.00 | 67 | 1010.3 |
| 20260504023749 | 42 | 320 | 0.0 | 0.0 | 0.00 | 0.00 | 0.00 | 66 | 1010.1 |
| 20260504023245 | 41 | 319 | 0.0 | 0.0 | 0.00 | 0.00 | 0.00 | 67 | 1010.2 |
| 20260504022741 | 41 | 319 | 0.0 | 0.0 | 0.00 | 0.00 | 0.00 | 66 | 1010.2 |
| 20260504022238 | 42 | 319 | 0.0 | 0.0 | 0.00 | 0.00 | 0.00 | 64 | 1010.1 |
| 20260504021735 | 42 | 319 | 0.0 | 0.0 | 0.00 | 0.00 | 0.00 | 63 | 1010.1 |
| 20260504021232 | 43 | 319 | 0.0 | 0.0 | 0.00 | 0.00 | 0.00 | 62 | 1010.3 |
| 20260504020729 | 44 | 319 | 0.0 | 0.0 | 0.00 | 0.00 | 0.00 | 61 | 1010.2 |
| 20260504020225 | 44 | 320 | 0.0 | 0.0 | 0.00 | 0.00 | 0.00 | 59 | 1010.2 |
| 20260504015722 | 45 | 320 | 0.0 | 0.0 | 0.00 | 0.00 | 0.00 | 58 | 1010.1 |
| 20260504015218 | 45 | 320 | 0.0 | 0.0 | 0.00 | 0.00 | 0.00 | 56 | 1010.1 |
| 20260504014714 | 46 | 320 | 0.0 | 0.0 | 0.00 | 0.00 | 0.00 | 56 | 1010.2 |
| 20260504014211 | 46 | 320 | 0.0 | 1.0 | 0.00 | 0.00 | 0.00 | 55 | 1010.1 |
| 20260504013709 | 46 | 320 | 0.0 | 1.0 | 0.00 | 0.00 | 0.00 | 54 | 1010.2 |
| 20260504013206 | 46 | 320 | 1.0 | 1.0 | 0.00 | 0.00 | 0.00 | 53 | 1010.2 |
| 20260504012702 | 46 | 334 | 1.0 | 2.0 | 0.00 | 0.00 | 0.00 | 52 | 1010.1 |
| 20260504012200 | 47 | 333 | 1.0 | 1.0 | 0.00 | 0.00 | 0.00 | 51 | 1010.2 |
| 20260504011657 | 47 | 38 | 1.0 | 2.0 | 0.00 | 0.00 | 0.00 | 50 | 1010.0 |
| 20260504011153 | 47 | 304 | 1.0 | 1.0 | 0.00 | 0.00 | 0.00 | 50 | 1010.1 |
| 20260504010649 | 47 | 167 | 2.0 | 3.0 | 0.00 | 0.00 | 0.00 | 49 | 1010.1 |
| 20260504010145 | 47 | 215 | 2.0 | 3.0 | 0.00 | 0.00 | 0.00 | 49 | 1010.0 |
| 20260504005643 | 47 | 197 | 1.0 | 1.0 | 0.00 | 0.00 | 0.00 | 48 | 1010.0 |
| 20260504005139 | 47 | 250 | 0.0 | 1.0 | 0.00 | 0.00 | 0.00 | 48 | 1009.8 |
| 20260504004637 | 47 | 277 | 1.0 | 1.0 | 0.00 | 0.00 | 0.00 | 47 | 1009.9 |
| 20260504004134 | 47 | 259 | 1.0 | 2.0 | 0.00 | 0.00 | 0.00 | 47 | 1010.0 |
| 20260504003630 | 47 | 283 | 1.0 | 1.0 | 0.00 | 0.00 | 0.00 | 46 | 1009.9 |
| 20260504003127 | 48 | 229 | 1.0 | 1.0 | 0.00 | 0.00 | 0.00 | 46 | 1009.8 |
| 20260504002624 | 48 | 295 | 1.0 | 2.0 | 0.00 | 0.00 | 0.00 | 44 | 1009.7 |
| 20260504002121 | 48 | 4 | 1.0 | 2.0 | 0.00 | 0.00 | 0.00 | 43 | 1009.7 |
| 20260504001619 | 48 | 221 | 0.0 | 1.0 | 0.00 | 0.00 | 0.00 | 42 | 1009.7 |
| 20260504001114 | 49 | 253 | 0.0 | 4.0 | 0.00 | 0.00 | 0.00 | 42 | 1009.7 |
| 20260504000612 | 49 | 241 | 1.0 | 3.0 | 0.00 | 0.00 | 0.00 | 41 | 1009.5 |
| 20260504000110 | 49 | 185 | 3.0 | 3.0 | 0.00 | 0.00 | 0.00 | 41 | 1009.5 |
| 20260503235608 | 49 | 234 | 0.0 | 3.0 | 0.00 | 0.00 | 0.00 | 41 | 1009.3 |
| 20260503235104 | 49 | 250 | 1.0 | 3.0 | 0.00 | 0.00 | 0.00 | 40 | 1009.4 |
| 20260503234602 | 50 | 291 | 1.0 | 2.0 | 0.00 | 0.00 | 0.00 | 39 | 1009.3 |
| 20260503234100 | 50 | 253 | 1.0 | 3.0 | 0.00 | 0.00 | 0.00 | 40 | 1009.2 |
| 20260503233556 | 50 | 311 | 1.0 | 2.0 | 0.00 | 0.00 | 0.00 | 39 | 1009.2 |
| 20260503233052 | 50 | 43 | 1.0 | 1.0 | 0.00 | 0.00 | 0.00 | 38 | 1009.3 |
| 20260503232549 | 50 | 292 | 1.0 | 2.0 | 0.00 | 0.00 | 0.00 | 38 | 1009.2 |
| 20260503232047 | 50 | 243 | 1.0 | 3.0 | 0.00 | 0.00 | 0.00 | 36 | 1009.1 |
| 20260503231545 | 51 | 285 | 2.0 | 4.0 | 0.00 | 0.00 | 0.00 | 36 | 1009.2 |
| 20260503231041 | 51 | 124 | 3.0 | 6.0 | 0.00 | 0.00 | 0.00 | 35 | 1009.0 |
| 20260503230538 | 52 | 264 | 2.0 | 7.0 | 0.00 | 0.00 | 0.00 | 36 | 1009.0 |
| 20260503230035 | 52 | 264 | 2.0 | 6.0 | 0.00 | 0.00 | 0.00 | 33 | 1008.7 |
| 20260503225532 | 52 | 220 | 1.0 | 4.0 | 0.00 | 0.00 | 0.00 | 34 | 1008.7 |
| 20260503225032 | 52 | 266 | 4.0 | 6.0 | 0.00 | 0.00 | 0.00 | 33 | 1008.6 |
| 20260503224530 | 52 | 277 | 1.0 | 2.0 | 0.00 | 0.00 | 0.00 | 35 | 1008.6 |
| 20260503224028 | 52 | 273 | 1.0 | 3.0 | 0.00 | 0.00 | 0.00 | 32 | 1008.6 |
| 20260503223526 | 53 | 3 | 0.0 | 4.0 | 0.00 | 0.00 | 0.00 | 32 | 1008.6 |
| 20260503223021 | 53 | 259 | 1.0 | 2.0 | 0.00 | 0.00 | 0.00 | 33 | 1008.6 |
| 20260503222520 | 53 | 300 | 3.0 | 3.0 | 0.00 | 0.00 | 0.00 | 31 | 1008.6 |
| 20260503222017 | 53 | 258 | 1.0 | 3.0 | 0.00 | 0.00 | 0.00 | 32 | 1008.3 |
| 20260503221515 | 53 | 301 | 0.0 | 2.0 | 0.00 | 0.00 | 0.00 | 32 | 1008.6 |
| 20260503221012 | 53 | 190 | 3.0 | 3.0 | 0.00 | 0.00 | 0.00 | 30 | 1008.6 |
| 20260503220508 | 53 | 329 | 1.0 | 7.0 | 0.00 | 0.00 | 0.00 | 30 | 1008.7 |
| 20260503220005 | 54 | 280 | 0.0 | 2.0 | 0.00 | 0.00 | 0.00 | 33 | 1008.4 |
| 20260503215502 | 54 | 328 | 1.0 | 4.0 | 0.00 | 0.00 | 0.00 | 29 | 1008.7 |
| 20260503214959 | 54 | 280 | 3.0 | 8.0 | 0.00 | 0.00 | 0.00 | 27 | 1008.4 |
| 20260503214458 | 55 | 57 | 4.0 | 6.0 | 0.00 | 0.00 | 0.00 | 28 | 1008.2 |
| 20260503213955 | 54 | 246 | 0.0 | 2.0 | 0.00 | 0.00 | 0.00 | 31 | 1008.2 |
| 20260503213453 | 54 | 237 | 1.0 | 3.0 | 0.00 | 0.00 | 0.00 | 29 | 1008.4 |
| 20260503212948 | 54 | 287 | 2.0 | 3.0 | 0.00 | 0.00 | 0.00 | 29 | 1008.5 |
| 20260503212446 | 54 | 330 | 1.0 | 2.0 | 0.00 | 0.00 | 0.00 | 29 | 1008.5 |
| 20260503211943 | 54 | 294 | 3.0 | 8.0 | 0.00 | 0.00 | 0.00 | 29 | 1008.5 |
| 20260503211441 | 54 | 280 | 2.0 | 9.0 | 0.00 | 0.00 | 0.00 | 28 | 1008.5 |
| 20260503210936 | 54 | 252 | 4.0 | 6.0 | 0.00 | 0.00 | 0.00 | 28 | 1008.6 |
| 20260503210433 | 55 | 284 | 4.0 | 7.0 | 0.00 | 0.00 | 0.00 | 28 | 1008.4 |
| 20260503205928 | 55 | 207 | 3.0 | 11.0 | 0.00 | 0.00 | 0.00 | 29 | 1008.5 |
| 20260503205425 | 55 | 234 | 2.0 | 3.0 | 0.00 | 0.00 | 0.00 | 29 | 1008.3 |
| 20260503204921 | 56 | 315 | 5.0 | 6.0 | 0.00 | 0.00 | 0.00 | 27 | 1008.5 |
| 20260503204419 | 55 | 243 | 1.0 | 7.0 | 0.00 | 0.00 | 0.00 | 31 | 1008.6 |
| 20260503203916 | 56 | 280 | 2.0 | 4.0 | 0.00 | 0.00 | 0.00 | 29 | 1008.6 |
| 20260503203413 | 56 | 267 | 3.0 | 7.0 | 0.00 | 0.00 | 0.00 | 27 | 1008.5 |
| 20260503202910 | 56 | 258 | 2.0 | 4.0 | 0.00 | 0.00 | 0.00 | 26 | 1008.6 |
| 20260503202408 | 55 | 247 | 1.0 | 3.0 | 0.00 | 0.00 | 0.00 | 29 | 1008.7 |
| 20260503201906 | 55 | 253 | 1.0 | 8.0 | 0.00 | 0.00 | 0.00 | 28 | 1008.8 |
| 20260503201403 | 55 | 25 | 1.0 | 3.0 | 0.00 | 0.00 | 0.00 | 28 | 1008.6 |
| 20260503200900 | 54 | 187 | 3.0 | 7.0 | 0.00 | 0.00 | 0.00 | 29 | 1008.4 |
| 20260503200356 | 55 | 291 | 3.0 | 6.0 | 0.00 | 0.00 | 0.00 | 29 | 1008.6 |
| 20260503195853 | 56 | 308 | 4.0 | 6.0 | 0.00 | 0.00 | 0.00 | 29 | 1008.7 |
| 20260503195349 | 55 | 292 | 3.0 | 7.0 | 0.00 | 0.00 | 0.00 | 29 | 1008.7 |
| 20260503194847 | 56 | 255 | 2.0 | 4.0 | 0.00 | 0.00 | 0.00 | 32 | 1008.9 |
| 20260503194343 | 55 | 289 | 1.0 | 1.0 | 0.00 | 0.00 | 0.00 | 38 | 1008.9 |
| 20260503193839 | 55 | 293 | 1.0 | 4.0 | 0.00 | 0.00 | 0.00 | 31 | 1008.8 |
| 20260503193335 | 56 | 209 | 4.0 | 11.0 | 0.00 | 0.00 | 0.00 | 31 | 1008.8 |
| 20260503192831 | 55 | 252 | 1.0 | 3.0 | 0.00 | 0.00 | 0.00 | 32 | 1009.1 |
| 20260503192327 | 56 | 302 | 3.0 | 6.0 | 0.00 | 0.00 | 0.00 | 31 | 1009.3 |
| 20260503191823 | 54 | 352 | 2.0 | 7.0 | 0.00 | 0.00 | 0.00 | 32 | 1009.3 |
| 20260503191321 | 55 | 256 | 4.0 | 7.0 | 0.00 | 0.00 | 0.00 | 30 | 1009.3 |
| 20260503190817 | 56 | 272 | 1.0 | 3.0 | 0.00 | 0.00 | 0.00 | 31 | 1009.5 |
| 20260503190314 | 55 | 256 | 1.0 | 3.0 | 0.00 | 0.00 | 0.00 | 43 | 1009.4 |
| 20260503185811 | 54 | 51 | 4.0 | 6.0 | 0.00 | 0.00 | 0.00 | 32 | 1009.5 |
| 20260503185308 | 53 | 300 | 3.0 | 7.0 | 0.00 | 0.00 | 0.00 | 33 | 1009.6 |
| 20260503184807 | 53 | 165 | 5.0 | 7.0 | 0.00 | 0.00 | 0.00 | 33 | 1009.5 |
| 20260503184304 | 53 | 285 | 1.0 | 4.0 | 0.00 | 0.00 | 0.00 | 35 | 1009.8 |
| 20260503183759 | 52 | 272 | 1.0 | 3.0 | 0.00 | 0.00 | 0.00 | 35 | 1009.9 |
| 20260503183257 | 52 | 267 | 1.0 | 6.0 | 0.00 | 0.00 | 0.00 | 38 | 1010.1 |
| 20260503182754 | 53 | 9 | 4.0 | 6.0 | 0.00 | 0.00 | 0.00 | 34 | 1009.9 |
| 20260503182253 | 51 | 163 | 2.0 | 3.0 | 0.00 | 0.00 | 0.00 | 39 | 1009.8 |
| 20260503181750 | 52 | 288 | 0.0 | 1.0 | 0.00 | 0.00 | 0.00 | 37 | 1009.8 |
| 20260503181247 | 51 | 301 | 3.0 | 6.0 | 0.00 | 0.00 | 0.00 | 35 | 1010.0 |
| 20260503180743 | 51 | 351 | 2.0 | 6.0 | 0.00 | 0.00 | 0.00 | 38 | 1009.9 |
| 20260503180242 | 50 | 173 | 1.0 | 6.0 | 0.00 | 0.00 | 0.00 | 38 | 1009.8 |
| 20260503175738 | 49 | 332 | 1.0 | 3.0 | 0.00 | 0.00 | 0.00 | 43 | 1010.1 |
| 20260503175236 | 49 | 345 | 1.0 | 7.0 | 0.00 | 0.00 | 0.00 | 41 | 1010.1 |
| 20260503174732 | 50 | 284 | 5.0 | 8.0 | 0.00 | 0.00 | 0.00 | 36 | 1010.0 |
| 20260503174230 | 49 | 20 | 2.0 | 2.0 | 0.00 | 0.00 | 0.00 | 39 | 1010.1 |
| 20260503173730 | 48 | 264 | 2.0 | 3.0 | 0.00 | 0.00 | 0.00 | 38 | 1010.2 |
| 20260503173226 | 48 | 292 | 1.0 | 2.0 | 0.00 | 0.00 | 0.00 | 40 | 1010.3 |
| 20260503172723 | 48 | 253 | 0.0 | 7.0 | 0.00 | 0.00 | 0.00 | 41 | 1010.3 |
| 20260503172220 | 48 | 143 | 5.0 | 7.0 | 0.00 | 0.00 | 0.00 | 40 | 1010.3 |
| 20260503171717 | 48 | 266 | 1.0 | 4.0 | 0.00 | 0.00 | 0.00 | 42 | 1010.5 |
| 20260503171214 | 49 | 269 | 3.0 | 4.0 | 0.00 | 0.00 | 0.00 | 39 | 1010.4 |
| 20260503170711 | 48 | 230 | 1.0 | 3.0 | 0.00 | 0.00 | 0.00 | 43 | 1010.4 |
| 20260503170208 | 48 | 302 | 2.0 | 4.0 | 0.00 | 0.00 | 0.00 | 40 | 1010.5 |
| 20260503160130 | 47 | 270 | 1.0 | 4.0 | 0.00 | 0.00 | 0.00 | 40 | 1010.6 |
| 20260503150559 | 46 | 333 | 2.0 | 3.0 | 0.00 | 0.00 | 0.00 | 38 | 1010.8 |
| 20260503130949 | 45 | 225 | 2.0 | 4.0 | 0.00 | 0.00 | 0.00 | 52 | 1011.2 |
| 20260503130447 | 45 | 232 | 2.0 | 3.0 | 0.00 | 0.00 | 0.00 | 57 | 1011.4 |
| 20260503110343 | 37 | 226 | 0.0 | 0.0 | 0.00 | 0.00 | 0.00 | 84 | 1011.1 |
| 20260503090235 | 35 | 226 | 0.0 | 0.0 | 0.00 | 0.00 | 0.00 | 83 | 1010.9 |
| 20260503081202 | 35 | 226 | 0.0 | 0.0 | 0.00 | 0.00 | 0.00 | 81 | 1011.0 |
| 20260503080657 | 35 | 226 | 0.0 | 0.0 | 0.00 | 0.00 | 0.00 | 81 | 1010.9 |
| 20260503080155 | 35 | 226 | 0.0 | 0.0 | 0.00 | 0.00 | 0.00 | 81 | 1011.0 |